Weather Roundup
Issued by NWS Chicago, IL

Home | Current Version | Previous Version | Text Only | Print | Product List | Glossary Off
Versions: 1 2 3 4 5 6 7 8 9 10 11 12 13 14 15 16 17 18 19 20 21 22 23 24 25 26 27 28 29 30 31 32 33 34 35 36 37 38 39 40 41 42 43 44 45 46 47 48 49 50

000
NZUS59 KLOT 230806
HRRLOT

CHICAGO AREA WEATHER ROUNDUP
NATIONAL WEATHER SERVICE CHICAGO/ROMEOVILLE IL
300 AM CDT TUE SEP 23 2014

NOTE: "FAIR" INDICATES FEW OR NO CLOUDS BELOW 12,000 FEET WITH NO
SIGNIFICANT WEATHER AND/OR OBSTRUCTIONS TO VISIBILITY.

* THESE STATIONS ARE NOT UNDER NWS QUALITY CONTROL. THEY ALSO MAY NOT
  REPORT WEATHER SUCH AS PRECIPITATION OR FOG.

ILZ005-006-012>014-019>023-230900-
NORTHEAST ILLINOIS

CITY           SKY/WX    TMP DP  RH WIND       PRES   REMARKS
OHARE          CLEAR     53  43  68 CALM      30.27S
MIDWAY         CLEAR     53  44  71 S7        30.27F
AURORA         CLEAR     46  42  86 CALM      30.29S
LANSING*       CLEAR     47  45  91 CALM      30.28F
JOLIET*        CLEAR     45  44  95 CALM      30.29S
WAUKEGAN       CLEAR     50  46  86 SW5       30.26S
DUPAGE AIRPORT CLEAR     49  46  90 S5        30.28R
WHEELING       CLEAR     49  44  83 CALM      30.29S
KANKAKEE*      CLEAR     45  44  96 CALM      30.30S
MORRIS*        CLEAR     48  47  97 S3        30.29R
LEWIS AIRPORT* CLEAR     46  44  92 S3        30.29S
NORTHERLY IS     N/A     55  42  61 W3          N/A
$$

WIZ051-052-058>065-066-070>072-230900-
SOUTHEAST WISCONSIN

CITY           SKY/WX    TMP DP  RH WIND       PRES   REMARKS
MILWAUKEE      CLEAR     53  46  77 CALM      30.25S
KENOSHA*       CLEAR     46  45  96 SW3       30.26S
RACINE*        CLEAR     53  46  77 W5        30.27S
BURLINGTON     CLEAR     41  41 100 CALM      30.26S
WAUKESHA       CLEAR     45  45 100 CALM      30.26S
WEST BEND      CLEAR     45  43  93 CALM      30.24S
$$

INZ001>003-010>013-019-020-230900-
NORTHWEST INDIANA

CITY           SKY/WX    TMP DP  RH WIND       PRES   REMARKS
GARY*          CLEAR     49  44  81 CALM      30.28F
MICHIGAN CITY* NOT AVBL
RENSSELAER*    NOT AVBL
VALPARAISO     CLEAR     45  43  93 CALM      30.29F FOG
$$

LMZ740>746-230900-
SOUTHERN LAKE MICHIGAN

STATION/POSITION TIME  SKY/WX   TEMP WIND        PRES    VSBY
                                AIR  DIR/SP/G
                 (UTC)          (F)  (DEG/KT/KT) (MB)    (MI)
HARRISON CRIB    NOT AVBL
BURNHAM HARBOR   0800            55  200/  5/  9   N/A
CALUMET HARBOR   0800            54  200/  5/  6 1023.9S
BURNS HARBOR     NOT AVBL
MICHIGAN CITY    NOT AVBL
$$

ABBREVIATIONS USED IN REMARKS
   TC - TEMPERATURE IN CELSIUS
  WCI - WIND CHILL INDEX
   HX - HEAT INDEX
  VSB - VISIBILITY
$$


USA.gov is the U.S. government's official web portal to all federal, state and local government web resources and services.